This demonstration page uses our WeatherBlox Daily Observations layout. Learn more.

Left ArrowRight Arrow

Hourly Observations for October 17, 2022

Temp ( °F °C ) Dew Point ( °F °C ) Humidity (%) Winds ( mph kmh ) Pressure ( in mb ) Visibility ( mi km ) Precip ( " mm )
12:53 am 00:53 Clear 38 3.3 27 -2.8 64 64 E 5 7 30.20 1023 N/A 0.00 0.00
1:53 am 01:53 Clear 37 2.8 27 -2.8 67 67 E 5 7 30.19 1022 N/A 0.00 0.00
2:53 am 02:53 Clear 34 1.1 26 -3.3 72 72 Calm 30.20 1023 N/A 0.00 0.00
3:53 am 03:53 Clear 31 -0.6 25 -3.9 78 78 Calm 30.20 1023 N/A 0.00 0.00
4:53 am 04:53 Clear 32 0 25 -3.9 75 75 Calm 30.19 1022 N/A 0.00 0.00
5:53 am 05:53 Clear 31 -0.6 24 -4.4 75 75 Calm 30.20 1023 N/A 0.00 0.00
6:53 am 06:53 Clear 31 -0.6 24 -4.4 75 75 ENE 5 7 30.20 1023 N/A 0.00 0.00
7:53 am 07:53 Sunny 27 -2.8 22 -5.6 81 81 Calm 30.23 1024 N/A 0.00 0.00
8:53 am 08:53 Sunny 36 2.2 26 -3.3 67 67 Calm 30.22 1023 N/A 0.00 0.00
9:53 am 09:53 Sunny 42 5.6 28 -2.2 57 57 E 3 6 30.22 1023 N/A 0.00 0.00
10:53 am 10:53 Sunny 49 9.4 30 -1.1 48 48 VRB 3 6 30.19 1023 N/A 0.00 0.00
11:53 am 11:53 Sunny 54 12.2 30 -1.1 40 40 Calm 30.19 1022 N/A 0.00 0.00
12:53 pm 12:53 Sunny 60 15.6 31 -0.6 33 33 Calm 30.17 1022 N/A 0.00 0.00
1:53 pm 13:53 Sunny 65 18.3 32 0 29 29 NE 8 13 30.15 1021 N/A 0.00 0.00
2:53 pm 14:53 Sunny 69 20.6 33 0.6 26 26 E 6 9 30.12 1020 N/A 0.00 0.00
3:53 pm 15:53 Sunny 71 21.7 33 0.6 25 25 E 8 13 30.11 1020 N/A 0.00 0.00
4:53 pm 16:53 Sunny 71 21.7 34 1.1 25 25 E 7 11 30.10 1019 N/A 0.00 0.00
5:53 pm 17:53 Sunny 68 20 35 1.7 30 30 E 7 11 30.11 1020 N/A 0.00 0.00
6:53 pm 18:53 Clear 63 17.2 36 2.2 36 36 ENE 8 13 30.11 1020 N/A 0.00 0.00
7:53 pm 19:53 Clear 50 10 34 1.1 54 54 E 7 11 30.13 1020 N/A 0.00 0.00
8:53 pm 20:53 Clear 50 10 34 1.1 54 54 E 7 11 30.13 1020 N/A 0.00 0.00
9:53 pm 21:53 Clear 46 7.8 32 0 58 58 E 6 9 30.13 1020 N/A 0.00 0.00
10:53 pm 22:53 Clear 43 6.1 32 0 65 65 E 3 6 30.13 1020 N/A 0.00 0.00
11:53 pm 23:53 Clear 42 5.6 32 0 67 67 E 6 9 30.12 1020 N/A 0.00 0.00

Powered by AerisWeather